Orbital Elements at Epoch 2459200.5 (2020-Dec-17.0) TDB
Reference: JPL 21 (heliocentric ecliptic J2000)
Element | Value | Uncertainty (1-sigma) | Units |
e | .1871800778544571 | 2.4853e-08 | |
a | 2.439463909285684 | 7.745e-09 | au |
q | 1.982844864822451 | 5.9825e-08 | au |
i | 3.462178353078867 | 3.774e-06 | deg |
node | 78.66519142187384 | 7.6076e-05 | deg |
peri | 216.9719592405302 | 7.7492e-05 | deg |
M | 90.52417648545313 | 1.5685e-05 | deg |
tp | 2458850.553137023648 (2020-Jan-02.05313702) | 6.0291e-05 | TDB |
period | 1391.682040783122 3.81 | 6.6276e-06 1.815e-08 | d yr |
n | .2586797770253773 | 1.2319e-09 | deg/d |
Q | 2.896082953748917 | 9.1947e-09 | au |
|
| | Orbit Determination Parameters
Additional Information
|